Regional Weather Roundup
Issued by NWS Bismarck, ND

Home | Current Version | Previous Version | Text Only | Print | Product List | Glossary On
Versions: 1 2 3 4 5 6 7 8 9 10 11 12 13 14 15 16 17 18 19 20 21 22 23 24 25 26 27 28 29 30 31 32 33 34 35 36 37 38 39 40 41 42 43 44 45 46 47 48 49 50
000
ASUS43 KBIS 052310
RWRBIS

NWR BROADCAST TEXT
NATIONAL WEATHER SERVICE BISMARCK ND
500 PM CST FRI FEB 05 2016

NOTE: "FAIR" INDICATES FEW OR NO CLOUDS BELOW 12,000 FEET WITH NO
SIGNIFICANT WEATHER AND/OR OBSTRUCTIONS TO VISIBILITY.


CITY           SKY/WX    TMP DP  RH WIND       PRES   REMARKS
WILLISTON      CLEAR     40  26  57 SW7       30.05F
MINOT          CLOUDY    39  21  48 SW8       30.05F
MINOT AFB      CLOUDY    37  24  59 CALM      30.04F
BISMARCK       CLEAR     43  24  47 W9        30.12F
DICKINSON      CLEAR     38  21  50 W12       30.07F
GARRISON         N/A     38  22  52 W12       30.07F
HETTINGER ARPT CLEAR     41  19  41 W13       30.13F
JAMESTOWN      CLEAR     32  17  54 NW6       30.11S
BEACH          FAIR      41  25  52 W9        30.11F
CARRINGTON     FAIR      28  25  86 W5        30.12S
HAZEN          FAIR      37  25  60 W8        30.11F
LINTON         FAIR      37  25  60 W7        30.15F
MANDAN         FAIR      37  25  60 W10       30.12S
OAKES          FAIR      32  21  64 NW10      30.14S
RUGBY          FAIR      27  18  69 S5        30.07S
STANLEY        FAIR      34  27  75 SW10      30.06F
TIOGA          FAIR      32  28  86 SW12      30.08F
WATFORD CITY   FAIR      37  27  65 SW7       30.07F
$$

CITY           SKY/WX    TMP DP  RH WIND       PRES   REMARKS
GRAND FORKS    PTCLDY    28  19  69 CALM      30.13R
GRAND FORKS AF CLEAR     28  19  68 W6        30.13R
DEVILS LAKE    CLEAR     24  20  84 SW6       30.10S WCI  17
FARGO          CLEAR     28  21  75 W5        30.14S
CAVALIER       FAIR      21  16  79 SE3       30.12F
GRAFTON        FAIR      19  16  86 S5        30.15S WCI  13
LANGDON        MOCLDY    23  18  80 SW8       30.07F WCI  14
ROLLA          FAIR      25  18  74 SW13      30.04F WCI  13
WALHALLA       FAIR      25  19  80 W3        30.11S
$$

CITY           SKY/WX    TMP DP  RH WIND       PRES   REMARKS
ABERDEEN       CLEAR     39  21  48 NW12      30.17R
MOBRIDGE       CLEAR     41  22  46 NW8       30.13F
BUFFALO          N/A     42  22  44 W14       30.08F
RAPID CITY     CLEAR     40  22  48 N13       30.18S
GLASGOW        CLOUDY    39  27  62 SW10      30.02F
SIDNEY         CLEAR     43  23  45 SW12      30.08S
WOLF POINT     CLOUDY    41  26  55 SW6       30.03F
GLENDIVE       CLEAR     43  23  45 W13G21    30.11S
MILES CITY     SUNNY     46  22  38 W13       30.11F
BAKER          CLOUDY    41  22  46 W14       30.12S
$$

CITY           SKY/WX    TMP DP  RH WIND       PRES   REMARKS
BILLINGS       CLOUDY    44  14  29 SW17      30.14F
GREAT FALLS    SUNNY     47  23  38 SW22G33   30.08S
REGINA         PTCLDY    36  27  69 S8        29.94F
ESTEVAN        MOCLDY    34  25  69 SW10      30.00F
$$




USA.gov is the U.S. government's official web portal to all federal, state and local government web resources and services.